Miscellaneous Local Product
Issued by NWS Hastings, NE

Home | Current Version | Previous Version | Text Only | Print | Product List | Glossary Off
Versions: 1 2 3 4 5 6 7 8 9 10 11 12 13 14 15 16 17 18 19 20 21 22 23 24 25 26 27 28 29 30 31 32 33 34 35 36 37 38 39 40 41 42 43 44 45 46 47 48 49 50

000
AXUS43 KGID 282202
MISGRI

GID CWA HOURLY WEATHER ROUNDUP
NATIONAL WEATHER SERVICE HASTINGS NE
500 PM CDT TUE JUL 28 2015

NOTE: "FAIR" INDICATES FEW OR NO CLOUDS BELOW 12,000 FEET WITH NO
SIGNIFICANT WEATHER AND/OR OBSTRUCTIONS TO VISIBILITY.

...SOUTH CENTRAL NEBRASKA...

CITY           SKY/WX    TMP DP  RH WIND       PRES   REMARKS
GRAND ISLAND   MOSUNNY   82  58  43 N14       29.98S
HASTINGS       MOSUNNY   81  59  47 N14       29.98S
KEARNEY        MOSUNNY   82  54  36 N16       30.00S
ORD            MOSUNNY   83  51  33 N10       29.99S
YORK           CLOUDY    77  68  73 N12G18    29.96R
AURORA         CLOUDY    76  61  58 N14       29.97S
LEXINGTON      SUNNY     83  52  33 N7        30.02F
HOLDREGE       SUNNY     81  51  34 N13       30.01S
HEBRON         SUNNY     84  72  66 N17G23    29.91R

...NEBRASKA PANHANDLE...

CITY           SKY/WX    TMP DP  RH WIND       PRES   REMARKS
CHADRON        SUNNY     81  31  16 W17G29    30.07S
ALLIANCE       SUNNY     81  31  16 NW17G28   30.09F
SCOTTSBLUFF    SUNNY     82  29  14 NW6       30.10F
SIDNEY         SUNNY     82  31  15 NW12      30.14S

...WESTERN AND NORTH CENTRAL NEBRASKA...

CITY           SKY/WX    TMP DP  RH WIND       PRES   REMARKS
VALENTINE      SUNNY     83  36  18 NW14G24   30.02S
AINSWORTH      SUNNY     83  44  26 W10G16    30.03S
ONEILL         MOSUNNY   81  51  35 NW15G21   30.01R
BROKEN BOW     SUNNY     85  53  33 VRB6      30.02S
IMPERIAL       SUNNY     85  42  22 N12       30.07F
NORTH PLATTE   SUNNY     83  45  26 NE10G17   30.03F
MCCOOK         SUNNY     87  48  25 N15       30.02S

...EASTERN NEBRASKA...

CITY           SKY/WX    TMP DP  RH WIND       PRES   REMARKS
NORFOLK        LGT RAIN  79  59  50 N9        29.97R
SO SIOUX CITY  CLOUDY    80  67  64 NW8       29.93R
TEKAMAH        CLOUDY    78  72  81 N13       29.91R
COLUMBUS       CLOUDY    79  61  53 N8        29.96R
ALBION         PTSUNNY   81  56  43 N8        29.99S
OMAHA EPPLEY   PTSUNNY   89  75  63 NW9       29.86F HX  99
OFFUTT AFB     MOSUNNY   89  77  69 NW7       29.85F HX 101
MILLARD        MOSUNNY   90  77  66 NW9       29.87S HX 102
LINCOLN        MOSUNNY   81  71  71 N24       29.91R
NEBRASKA CITY  CLOUDY    90  74  59 W3        29.86S HX  99
BEATRICE       CLOUDY    91  74  56 CALM      29.86F HX 100
FALLS CITY     SUNNY     94  76  55 S9        29.84S HX 106

...NORTHERN KANSAS...

CITY           SKY/WX    TMP DP  RH WIND       PRES   REMARKS
GOODLAND       SUNNY     85  43  22 NE14      30.08S
HILL CITY      SUNNY     87  53  31 NE20G28   29.99S
NORTON         CLEAR     81  48  32 N14G21    30.00S
PHILLIPSBURG   SUNNY     90  54  29 N15       29.96S
SMITH CENTER   SUNNY     86  64  48 N15G24    29.94R
HAYS           SUNNY     88  64  45 N20G25    29.93S
RUSSELL        SUNNY     89  71  55 N21G26    29.88S HX  95
CONCORDIA      SUNNY     91  78  65 N16G26    29.86R HX 106
SALINA         MOSUNNY  103  69  33 S14G23    29.82S HX 110
TOPEKA         SUNNY     96  71  44 S14       29.85S HX 103



USA.gov is the U.S. government's official web portal to all federal, state and local government web resources and services.